Starlink 30830

operational
NORAD ID: 58194 Int'l Des: 2023-167 Owner: SPXS Country: US Constellation: starlink
LEOCIRCULAR

About Starlink 30830

Description loading...

Live Position

Loading 3D Globe...

Upcoming Passes

Altitude History

Altitude vs Time

uPlot chart will show altitude changes over time

Two-Line Element Set

1 58194U 23167V 25258.30853013 -.00000202 00000-0 14236-6 0 9998
2 58194 43.0055 18.8600 0001362 274.5854 85.4833 15.02537128104578
Epoch: Sep 15, 2025 • Age: 6 hours

Current Status

Altitude 558.3 km
Velocity 7.59 km/s
Sub-Earth Point 12.38°N, 171.85°W
Launch Date Oct 30, 2023
Age 1.8 years
Type internet

Technical Details

Classification Payload
Mass 730.00 kg
Dry Mass 700.00 kg
Total Mass 730.00 kg
Length 0.30 m
Diameter 4.10 m
Span 29.00 m
Shape Box + pan
Manufacturer SPXS
Bus Type Starlink V2M
Phase Status In Orbit
Owner/State SPXS/US

Large Constellations

Loading constellations...